Regional & State Weather Roundups


719 
ASUS43 KDMX 172306
RWRIA 
WEATHER ROUNDUP FOR IOWA
NATIONAL WEATHER SERVICE DES MOINES IA
500 PM CST SAT FEB 17 2018
NOTE: "FAIR" INDICATES FEW OR NO CLOUDS BELOW 12,000 FEET WITH NO
SIGNIFICANT WEATHER AND/OR OBSTRUCTIONS TO VISIBILITY.
* - THESE STATIONS ARE NOT NWS STATIONS...THUS NOT UNDER NWS
QUALITY CONTROL.  THEY ALSO DO NOT REPORT WEATHER SUCH 
AS PRECIPITATION OR FOG.  
IAZ001>003-012>014-020>022-031>034-043>046-180000-
   NORTHWEST IOWA
  
CITY           SKY/WX    TMP DP  RH WIND       PRES   REMARKS
CARROLL *      CLEAR     36  28  75 NW15G23   30.07R WCI  26          
CHEROKEE *     CLEAR     32  27  83 NW14G20   30.07R WCI  22          
DENISON *      CLEAR     36  27  69 W9G16     30.10R WCI  29          
LE MARS *      CLOUDY    32  27  80 NW8       30.08R WCI  25          
ORANGE CITY *  CLEAR     28  27  93 W12       30.06R WCI  18          
SHELDON *      CLEAR     28  25  86 W10       30.02S WCI  19          
SIOUX CITY     PTCLDY    35  28  75 NW8       30.10R WCI  29          
SPENCER        CLEAR     31  25  78 W14       30.03R WCI  21          
STORM LAKE *   CLEAR     30  27  86 W13       30.05R WCI  20          
$$
 
IAZ055>058-069>071-079>083-090>094-180000-
   SOUTHWEST IOWA
  
CITY           SKY/WX    TMP DP  RH WIND       PRES   REMARKS
ATLANTIC *     CLEAR     41  28  60 NW14G21   30.09R                  
AUDUBON *      CLEAR     37  27  65 W10       30.10R WCI  30          
CLARINDA *     CLEAR     46  27  46 NW10G20   30.12R                  
COUNCIL BLFS * CLEAR     43  28  56 NW10G18   30.10R                  
CRESTON *      CLEAR     43  25  49 NW20      30.09R                  
HARLAN  *      CLEAR     39  28  65 NW15      30.13R WCI  31          
LAMONI         CLEAR     45  23  42 NW21      30.08R                  
RED OAK *      CLEAR     45  25  45 NW15      30.10R                  
SHENANDOAH *   CLEAR     46  27  46 W8G14     30.11R                  
$$
 
IAZ047>049-059>061-072>074-084-180000-
   CENTRAL IOWA
  
CITY           SKY/WX    TMP DP  RH WIND       PRES   REMARKS
AMES           CLEAR     36  28  73 NW14      30.06R WCI  27          
ANKENY *       PTCLDY    37  28  70 W17       30.08R WCI  28          
BOONE *        PTCLDY    36  28  75 W14G20    30.05R WCI  27          
CHARITON *     CLEAR     43  27  52 NW17G28   30.07R                  
DES MOINES     PTCLDY    39  27  62 NW17G24   30.08R WCI  30          
GRINNELL*      PTCLDY    34  28  80 W10       30.07R WCI  26          
KNOXVILLE *    MOCLDY    37  28  70 NW8       30.07R WCI  31          
MARSHALLTOWN   CLEAR     32  28  85 W10       30.05R WCI  24          
NEWTON *       CLEAR     36  28  75 NW9G16    30.07R WCI  29          
PELLA *        PTCLDY    38  29  71 NW9       30.09R WCI  31          
PERRY *        FAIR      36  29  78 W14       30.08R WCI  27          
$$
 
IAZ004>006-015-016-023>025-035-036-180000-
   NORTH CENTRAL IOWA
  
CITY           SKY/WX    TMP DP  RH WIND       PRES   REMARKS
ALGONA *       CLEAR     32 N/A N/A W12       30.03R WCI  23          
CLARION *      CLEAR     32  32 100 NW13      30.03R WCI  22          
ESTHERVILLE    CLEAR     31  24  75 W15       30.00R WCI  20          
FORT DODGE *   CLEAR     32  26  78 NW9G16    30.05R WCI  24          
MASON CITY     CLEAR     30  25  81 W14       30.01R WCI  19          
WEBSTER CITY * CLEAR     30  27  86 W12       30.04R WCI  21          
IOWA FALLS *   FAIR      30  26  84 W10       30.05R WCI  21          
$$
IAZ007>011-017>019-026>030-037>042-050>054-066-180000-
   NORTHEAST IOWA
  
CITY           SKY/WX    TMP DP  RH WIND       PRES   REMARKS
CEDAR RAPIDS   MOCLDY    30  25  81 NW12      30.03R WCI  20          
CHARLES CITY * FAIR      30  30 100 W12       30.00R WCI  21          
CLINTON *      CLOUDY    29  25  85 NW22      30.02R WCI  15          
DECORAH *      CLOUDY    28  25  86 VRB6G14   29.97R WCI  22          
DUBUQUE        CLOUDY    27  20  75 NW16      29.99R WCI  15          
MONTICELLO *   CLOUDY    28  23  80 W9G17     30.02R WCI  20          
OELWEIN *      CLOUDY    28  28 100 W12       30.01R WCI  18          
WATERLOO       MOCLDY    31  26  82 W12       30.03R WCI  22          
$$
 
IAZ064-065-067-068-078-180000-
   EAST CENTRAL IOWA
  
CITY           SKY/WX    TMP DP  RH WIND       PRES   REMARKS
DAVENPORT      CLOUDY    30  23  75 NW17      30.04R WCI  18          
IOWA CITY      FAIR      33  23  66 NW12      30.07R WCI  24          
MT. PLEASANT * CLEAR     34  27  75 NW12      30.08R WCI  25          
MUSCATINE *    FAIR      32  25  74 W15       30.07R WCI  22          
QUAD CITIES    CLOUDY    32  25  75 NW18G26   30.03R WCI  20          
$$
 
IAZ062-063-075>077-085>089-095>099-180000-
   SOUTHEAST IOWA
  
CITY           SKY/WX    TMP DP  RH WIND       PRES   REMARKS
BURLINGTON     CLEAR     37  28  70 NW10      30.06R WCI  30          
FAIRFIELD *    CLEAR     36  27  69 NW10      30.07R WCI  28          
FORT MADISON * CLEAR     37  30  75 NW12G17   30.08R WCI  30          
KEOKUK *       CLEAR     43  28  56 NW10G20   30.06R                  
OSKALOOSA *    FAIR      33  28  83 NW12      30.09R WCI  24          
OTTUMWA        CLEAR     38  26  62 NW13      30.07R WCI  30          
WASHINGTON *   PTCLDY    32  28  86 NW15      30.08R WCI  22          
$$
ABBREVIATIONS USED IN REMARKS
   TC - TEMPERATURES IN CELSIUS
  WCI - WIND CHILL INDEX
   HX - HEAT INDEX
  VSB - VISIBILITY  
$$